sat.trackr.live / text

‹ back to catalog

STARLINK-32543

NORAD 63364 · 2025-063B

PAYLOAD ACTIVE UNKNOWN

§ Identity

Operator
Country
US
Launch date
2025-03-26
Launch site
AFWTR
Launch vehicle
Mass (kg)
RCS (m²)

Purposes: comms

External: N2YO · Heavens-Above · Gunter

§ Orbital elements

Epoch: 2026-09-20T21:48:19.148544Z

Period
93.85 min
Inclination
53.1570°
Eccentricity
0.0001685
Mean motion
15.34408814 rev/d
Perigee alt
461.5 km
Apogee alt
463.8 km
Semi-major
6,840.8 km
B*
5.5546e-4
RAAN
219.6536°
Arg perigee
94.7343°
Mean anomaly
265.3852°
Rev number
8,472

§ Raw data

STARLINK-325431 63364U 25063B   26263.90855496  .00018442  00000+0  55546-3 0  99992 63364  53.1570 219.6536 0001685  94.7343 265.3852 15.34408814 84727

JSON: /api/v1/satellites/63364 · /tle

For live sub-satellite position, see the globe view (requires WebGL).

§ Visibility from observer

Set your observer location to see the next 7 days of passes ≥ 10°. The values pass through the URL so the page stays shareable.

No JS? Fill the form by hand. The geolocation button needs JavaScript.